Weather History for Socorro, NM

Change the Weather History Date:

Monday, January 27, 2014

  Actual Average Record
Temperature  
Mean Temperature 43 °F -  
Max Temperature 57 °F 57 °F 63 °F (2013)
Min Temperature 29 °F 25 °F 23 °F (2011)
Degree Days  
Heating Degree Days 22    
Moisture  
Dew Point 14 °F    
Average Humidity 35    
Maximum Humidity 59    
Minimum Humidity 18    
Precipitation  
Precipitation 0.00 in - - ()
Sea Level Pressure  
Sea Level Pressure 30.01 in    
Wind  
Wind Speed 6 mph (SSW)    
Max Wind Speed 14 mph    
Max Gust Speed 22 mph    
Visibility 10 miles    
Events      
Averages and records for this station are not official NWS values.
T = Trace of Precipitation, MM = Missing Value Source: NWS Daily Summary

Daily Weather History Graph

Daily Weather History Graph

Search for Another Location

Airport:

Trip Planner

Search our weather history database for the weather conditions in past years. The results will help you decide how hot, cold, wet, or windy it might be!

Date:

Astronomy

Jan. 27, 2014 Rise Set
Actual Time 7:07 AM MST 5:33 PM MST
Civil Twilight 6:41 AM MST 5:59 PM MST
Nautical Twilight 6:11 AM MST 6:29 PM MST
Astronomical Twilight 5:41 AM MST 6:59 PM MST
Moon 3:50 AM MST (1/27) 2:24 PM MST (1/27)
Length of Visible Light 11h 18m
Length of Day
10h 25m
Waning Crescent, 14% of the Moon is Illuminated
Jan 27
Waning Crescent
Jan 30
New
Feb 6
First Quarter
Feb 14
Full
Feb 22
Last Quarter

Hourly Weather History & Observations

Time (MST) Temp. Windchill Dew Point Humidity Pressure Visibility Wind Dir Wind Speed Gust Speed Precip Events Conditions
12:15 AM 38.8 °F 34.6 °F -0.2 °F 19% 30.01 in 10.0 mi West 5.8 mph - N/A   Clear
12:35 AM 40.6 °F 36.7 °F -0.4 °F 18% 30.00 in 10.0 mi North 5.8 mph - N/A   Clear
12:55 AM 40.6 °F 36.0 °F -0.2 °F 18% 30.00 in 10.0 mi North 6.9 mph - N/A   Clear
1:15 AM 38.8 °F 34.6 °F 0.3 °F 20% 30.00 in 10.0 mi North 5.8 mph - N/A   Clear
1:35 AM 37.8 °F 34.2 °F 0.5 °F 21% 30.00 in 10.0 mi North 4.6 mph - N/A   Clear
1:55 AM 35.6 °F 29.2 °F 1.4 °F 24% 30.01 in 10.0 mi North 8.1 mph - N/A   Clear
2:15 AM 38.3 °F 31.9 °F 1.0 °F 21% 30.01 in 10.0 mi North 9.2 mph - N/A   Clear
2:35 AM 37.6 °F 32.3 °F 1.4 °F 22% 30.01 in 10.0 mi North 6.9 mph - N/A   Clear
2:55 AM 36.1 °F 29.9 °F 2.3 °F 24% 30.02 in 10.0 mi NNW 8.1 mph - N/A   Clear
3:15 AM 37.6 °F 31.0 °F 2.7 °F 23% 30.02 in 10.0 mi North 9.2 mph - N/A   Clear
3:35 AM 38.3 °F 33.9 °F 4.5 °F 24% 30.03 in 10.0 mi NNE 5.8 mph - N/A   Clear
3:55 AM 37.4 °F - 3.0 °F 24% 30.03 in 10.0 mi Calm Calm - N/A   Clear
4:15 AM 34.7 °F 28.1 °F 5.0 °F 29% 30.04 in 10.0 mi North 8.1 mph - N/A   Clear
4:35 AM 34.0 °F 31.0 °F 5.4 °F 30% 30.04 in 10.0 mi South 3.5 mph - N/A   Clear
4:55 AM 34.5 °F 31.6 °F 6.4 °F 31% 30.04 in 10.0 mi West 3.5 mph - N/A   Clear
5:15 AM 35.1 °F - 9.5 °F 35% 30.05 in 10.0 mi Calm Calm - N/A   Clear
5:35 AM 36.9 °F - 10.9 °F 34% 30.05 in 10.0 mi Calm Calm - N/A   Clear
5:55 AM 33.3 °F 30.2 °F 12.4 °F 42% 30.05 in 10.0 mi SW 3.5 mph - N/A   Clear
6:15 AM 34.2 °F 30.0 °F 13.3 °F 42% 30.05 in 10.0 mi WSW 4.6 mph - N/A   Clear
6:35 AM 35.4 °F 31.5 °F 15.3 °F 44% 30.05 in 10.0 mi NW 4.6 mph - N/A   Clear
6:55 AM 35.6 °F 32.8 °F 18.0 °F 49% 30.06 in 10.0 mi West 3.5 mph - N/A   Clear
7:15 AM 35.2 °F 30.3 °F 18.1 °F 50% 30.08 in 10.0 mi West 5.8 mph - N/A   Clear
7:35 AM 36.0 °F - 20.7 °F 54% 30.10 in 10.0 mi Calm Calm - N/A   Clear
7:55 AM 36.5 °F - 20.3 °F 52% 30.11 in 10.0 mi Calm Calm - N/A   Clear
8:15 AM 35.2 °F - 18.5 °F 51% 30.11 in 10.0 mi Calm Calm - N/A   Clear
8:35 AM 35.8 °F 33.0 °F 19.2 °F 51% 30.11 in 10.0 mi SSW 3.5 mph - N/A   Clear
8:55 AM 37.0 °F 32.4 °F 20.1 °F 50% 30.12 in 10.0 mi SW 5.8 mph - N/A   Clear
9:15 AM 37.4 °F 34.9 °F 19.8 °F 49% 30.11 in 10.0 mi South 3.5 mph - N/A   Clear
9:35 AM 38.3 °F 35.9 °F 19.8 °F 47% 30.11 in 10.0 mi WSW 3.5 mph - N/A   Clear
9:55 AM 40.5 °F 38.4 °F 19.9 °F 44% 30.11 in 10.0 mi SW 3.5 mph - N/A   Clear
10:15 AM 42.1 °F 38.4 °F 19.6 °F 41% 30.10 in 10.0 mi SSE 5.8 mph - N/A   Clear
10:35 AM 43.0 °F 40.3 °F 19.4 °F 39% 30.09 in 10.0 mi South 4.6 mph - N/A   Clear
10:55 AM 42.6 °F - 19.0 °F 39% 30.09 in 10.0 mi Calm Calm - N/A   Clear
11:15 AM 44.4 °F 40.5 °F 18.3 °F 35% 30.07 in 10.0 mi SSE 6.9 mph - N/A   Clear
11:35 AM 45.7 °F 41.5 °F 17.6 °F 33% 30.05 in 10.0 mi SSE 8.1 mph - N/A   Clear
11:55 AM 44.8 °F - 17.2 °F 33% 30.04 in 10.0 mi Calm Calm - N/A   Clear
12:15 PM 46.4 °F - 17.1 °F 31% 30.04 in 10.0 mi Calm Calm - N/A   Scattered Clouds
12:35 PM 47.8 °F - 17.1 °F 29% 30.02 in 10.0 mi NE 3.5 mph - N/A   Scattered Clouds
12:55 PM 49.6 °F - 17.1 °F 27% 29.99 in 10.0 mi Calm Calm - N/A   Clear
1:15 PM 52.2 °F - 16.5 °F 24% 29.97 in 10.0 mi ESE 5.8 mph - N/A   Clear
1:35 PM 53.8 °F - 14.9 °F 22% 29.97 in 10.0 mi South 6.9 mph - N/A   Clear
1:55 PM 54.0 °F - 15.1 °F 22% 29.96 in 10.0 mi South 9.2 mph - N/A   Clear
2:15 PM 55.2 °F - 14.9 °F 20% 29.94 in 10.0 mi SSE 10.4 mph 20.7 mph N/A   Clear
2:35 PM 55.4 °F - 14.2 °F 20% 29.93 in 10.0 mi South 13.8 mph 21.9 mph N/A   Clear
2:55 PM 55.6 °F - 14.7 °F 20% 29.93 in 10.0 mi South 12.7 mph - N/A   Clear
3:15 PM 55.9 °F - 14.0 °F 19% 29.93 in 10.0 mi SSE 10.4 mph - N/A   Clear
3:35 PM 57.0 °F - 13.6 °F 18% 29.94 in 10.0 mi SSW 10.4 mph - N/A   Clear
3:55 PM 56.5 °F - 14.5 °F 19% 29.93 in 10.0 mi SSW 10.4 mph - N/A   Clear
4:15 PM 56.3 °F - 14.7 °F 19% 29.93 in 10.0 mi South 10.4 mph - N/A   Clear
4:35 PM 56.1 °F - 14.9 °F 20% 29.94 in 10.0 mi South 9.2 mph - N/A   Clear
4:55 PM 55.4 °F - 14.7 °F 20% 29.93 in 10.0 mi South 11.5 mph - N/A   Clear
5:15 PM 54.0 °F - 15.8 °F 22% 29.93 in 10.0 mi South 9.2 mph - N/A   Clear
5:35 PM 51.4 °F - 16.0 °F 25% 29.93 in 10.0 mi South 6.9 mph - N/A   Clear
5:55 PM 47.1 °F - 15.3 °F 28% 29.95 in 10.0 mi South 3.5 mph - N/A   Clear
6:15 PM 43.2 °F 37.9 °F 15.3 °F 32% 29.95 in 10.0 mi SSE 9.2 mph - N/A   Clear
6:35 PM 44.4 °F 39.0 °F 16.7 °F 33% 29.95 in 10.0 mi SSE 10.4 mph - N/A   Clear
6:55 PM 43.7 °F 39.1 °F 16.7 °F 34% 29.96 in 10.0 mi South 8.1 mph - N/A   Clear
7:15 PM 41.9 °F 35.4 °F 16.7 °F 36% 29.96 in 10.0 mi South 11.5 mph - N/A   Clear
7:35 PM 40.3 °F 33.9 °F 17.1 °F 39% 29.96 in 10.0 mi South 10.4 mph - N/A   Clear
7:55 PM 39.6 °F 34.0 °F 17.6 °F 41% 29.96 in 10.0 mi South 8.1 mph - N/A   Clear
8:15 PM 38.3 °F 33.2 °F 18.1 °F 44% 29.96 in 10.0 mi South 6.9 mph - N/A   Clear
8:35 PM 36.7 °F 30.5 °F 18.0 °F 47% 29.96 in 10.0 mi South 8.1 mph - N/A   Clear
8:55 PM 35.8 °F 28.8 °F 17.8 °F 48% 29.97 in 10.0 mi South 9.2 mph - N/A   Clear
9:15 PM 34.9 °F 27.7 °F 17.6 °F 49% 29.97 in 10.0 mi SSW 9.2 mph - N/A   Clear
9:35 PM 35.1 °F 29.3 °F 18.5 °F 51% 29.97 in 10.0 mi SSW 6.9 mph - N/A   Clear
9:55 PM 35.1 °F 29.3 °F 19.0 °F 52% 29.98 in 10.0 mi SSW 6.9 mph - N/A   Clear
10:15 PM 32.5 °F 29.3 °F 17.8 °F 55% 29.98 in 10.0 mi SW 3.5 mph - N/A   Clear
10:35 PM 30.7 °F 24.9 °F 16.2 °F 55% 29.99 in 10.0 mi SW 5.8 mph - N/A   Clear
10:55 PM 29.8 °F 23.0 °F 15.8 °F 56% 29.99 in 10.0 mi SSW 6.9 mph - N/A   Clear
11:15 PM 31.6 °F 23.1 °F 18.0 °F 57% 29.99 in 10.0 mi SW 10.4 mph - N/A   Clear
11:35 PM 31.1 °F 24.5 °F 18.3 °F 59% 30.00 in 10.0 mi SSW 6.9 mph - N/A   Clear
11:55 PM 31.6 °F 24.4 °F 18.7 °F 59% 30.00 in 10.0 mi South 8.1 mph - N/A   Clear